FW5336 Weather Reports


Display with metric or nautical units.
time (UTC)temp
F
wind
direction
speed
MPH
gust
MPH
rain 1hr
in
rain 24hr
in
rain mn
in
humidity
%
barometer
mb
20260506013704 52 252 0.0 1.0 0.00 0.05 0.05 60
20260506013201 53 250 0.0 1.0 0.00 0.05 0.05 59
20260506012657 52 266 1.0 2.0 0.00 0.05 0.05 55
20260506012154 52 258 0.0 1.0 0.00 0.05 0.05 58
20260506011651 52 249 0.0 1.0 0.00 0.05 0.05 58
20260506011147 53 252 0.0 1.0 0.00 0.05 0.05 58
20260506010646 53 251 0.0 1.0 0.00 0.05 0.05 58
20260506010143 53 265 0.0 1.0 0.00 0.05 0.05 56
20260506005640 53 251 0.0 2.0 0.00 0.05 0.05 54
20260506005136 53 275 0.0 1.0 0.00 0.05 0.05 54
20260506004632 53 254 1.0 1.0 0.00 0.05 0.05 53
20260506004129 54 268 0.0 1.0 0.00 0.05 0.05 54
20260506003620 54 254 1.0 2.0 0.00 0.05 0.05 53
20260506003117 54 245 0.0 2.0 0.00 0.05 0.05 53
20260506002613 54 284 1.0 2.0 0.00 0.05 0.05 54
20260506002109 54 294 1.0 3.0 0.00 0.05 0.05 52
20260506001605 54 277 1.0 3.0 0.00 0.05 0.05 52
20260506001102 54 292 1.0 3.0 0.00 0.05 0.05 51
20260506000600 54 317 1.0 5.0 0.00 0.05 0.05 52
20260506000057 54 250 1.0 3.0 0.00 0.05 0.05 53
20260505235555 54 289 1.0 2.0 0.00 0.05 0.05 52
20260505235052 54 252 0.0 3.0 0.00 0.05 0.05 53
20260505234549 54 291 1.0 2.0 0.00 0.05 0.05 53
20260505234045 55 298 2.0 5.0 0.00 0.05 0.05 53
20260505233543 55 256 0.0 2.0 0.00 0.05 0.05 54
20260505233040 55 254 1.0 1.0 0.00 0.05 0.05 55
20260505232538 55 273 1.0 5.0 0.00 0.05 0.05 55
20260505232035 55 255 0.0 2.0 0.00 0.05 0.05 56
20260505231532 55 277 1.0 5.0 0.00 0.05 0.05 57
20260505231031 55 291 1.0 2.0 0.00 0.05 0.05 59
20260505230528 55 271 2.0 3.0 0.00 0.05 0.05 59
20260505230024 55 252 1.0 3.0 0.00 0.05 0.05 60
20260505225521 55 248 1.0 1.0 0.00 0.05 0.05 62
20260505225017 55 293 2.0 5.0 0.00 0.05 0.05 62
20260505224514 55 278 1.0 3.0 0.00 0.05 0.05 63
20260505224011 55 241 0.0 2.0 0.00 0.05 0.05 63
20260505223508 55 298 3.0 3.0 0.00 0.05 0.05 64
20260505223004 55 261 2.0 2.0 0.00 0.05 0.05 66
20260505222501 55 289 1.0 2.0 0.00 0.05 0.05 66
20260505221956 55 287 1.0 2.0 0.00 0.05 0.05 66
20260505221454 55 325 1.0 2.0 0.00 0.05 0.05 67
20260505220951 55 310 2.0 3.0 0.00 0.05 0.05 67
20260505220448 55 258 2.0 2.0 0.00 0.05 0.05 67
20260505215945 55 317 3.0 3.0 0.00 0.05 0.05 66
20260505215444 55 178 2.0 2.0 0.00 0.05 0.05 67
20260505214941 55 260 1.0 2.0 0.00 0.05 0.05 66
20260505214438 55 288 1.0 2.0 0.00 0.05 0.05 66
20260505213936 55 225 3.0 3.0 0.00 0.05 0.05 66
20260505213433 55 264 3.0 5.0 0.00 0.05 0.05 66
20260505212929 55 264 2.0 5.0 0.00 0.05 0.05 65
20260505212427 55 267 3.0 5.0 0.00 0.05 0.05 65
20260505211923 55 279 1.0 3.0 0.00 0.05 0.05 65
20260505211420 55 258 0.0 3.0 0.00 0.05 0.05 65
20260505210916 55 323 0.0 2.0 0.00 0.05 0.05 65
20260505210414 55 236 2.0 3.0 0.00 0.05 0.05 65
20260505205910 55 259 2.0 3.0 0.00 0.05 0.05 65
20260505205409 55 270 2.0 3.0 0.00 0.05 0.05 65
20260505204905 56 336 4.0 5.0 0.00 0.05 0.05 65
20260505204403 56 268 2.0 3.0 0.00 0.05 0.05 64
20260505203859 56 287 1.0 6.0 0.00 0.05 0.05 64
20260505203356 56 273 1.0 2.0 0.00 0.05 0.05 64
20260505202852 56 253 1.0 3.0 0.00 0.05 0.05 65
20260505202349 56 284 4.0 5.0 0.00 0.05 0.05 64
20260505201845 56 267 0.0 3.0 0.00 0.05 0.05 64
20260505201343 56 261 3.0 7.0 0.00 0.05 0.05 65
20260505200841 56 261 2.0 5.0 0.00 0.05 0.05 65
20260505200337 55 250 0.0 2.0 0.00 0.05 0.05 66
20260505195833 55 237 2.0 6.0 0.00 0.05 0.05 66
20260505195330 55 193 1.0 2.0 0.00 0.05 0.05 66
20260505194827 55 255 0.0 3.0 0.00 0.05 0.05 67
20260505194325 55 276 2.0 3.0 0.00 0.05 0.05 67
20260505193820 55 248 1.0 5.0 0.00 0.05 0.05 67
20260505193318 55 239 1.0 1.0 0.00 0.05 0.05 67
20260505192816 55 262 1.0 9.0 0.00 0.05 0.05 67
20260505192314 55 289 2.0 5.0 0.00 0.05 0.05 68
20260505191811 55 271 1.0 8.0 0.00 0.05 0.05 67
20260505191309 55 314 5.0 7.0 0.00 0.05 0.05 67
20260505190806 55 267 2.0 8.0 0.00 0.05 0.05 65
20260505190301 55 254 3.0 6.0 0.00 0.05 0.05 65
20260505185757 55 296 3.0 7.0 0.00 0.05 0.05 66
20260505185254 56 31 3.0 3.0 0.00 0.05 0.05 65
20260505184750 56 252 0.0 3.0 0.00 0.05 0.05 64
20260505184247 56 262 4.0 9.0 0.00 0.05 0.05 63
20260505183744 56 259 4.0 5.0 0.00 0.05 0.05 65
20260505183241 56 277 3.0 7.0 0.00 0.05 0.05 64
20260505182738 56 225 2.0 6.0 0.00 0.05 0.05 66
20260505182235 56 261 1.0 8.0 0.00 0.05 0.05 67
20260505181731 56 236 2.0 8.0 0.00 0.05 0.05 67
20260505181229 56 242 3.0 7.0 0.00 0.05 0.05 69
20260505180725 56 257 4.0 9.0 0.00 0.05 0.05 71
20260505180222 56 277 4.0 9.0 0.00 0.05 0.05 73
20260505175718 56 332 4.0 6.0 0.00 0.05 0.05 73
20260505175214 56 269 4.0 6.0 0.00 0.05 0.05 75
20260505174711 55 326 3.0 7.0 0.00 0.05 0.05 76
20260505174208 54 318 2.0 7.0 0.00 0.05 0.05 77
20260505173704 54 252 3.0 6.0 0.00 0.05 0.05 78
20260505173201 53 285 1.0 3.0 0.00 0.05 0.05 78
20260505172658 53 250 2.0 5.0 0.00 0.05 0.05 77
20260505172155 54 287 2.0 3.0 0.00 0.05 0.05 78
20260505171654 54 254 1.0 7.0 0.07 0.05 0.05 78
20260505171152 54 315 2.0 3.0 0.07 0.05 0.05 76
20260505170649 54 250 1.0 5.0 0.00 0.04 0.04 75
20260505170147 54 295 2.0 3.0 0.00 0.04 0.04 73
20260505165647 55 278 4.0 6.0 0.00 0.04 0.04 71
20260505165143 55 290 5.0 7.0 0.00 0.04 0.04 69
20260505164638 56 295 3.0 5.0 0.00 0.04 0.04 66
20260505164136 57 304 3.0 5.0 0.00 0.04 0.04 64
20260505163634 58 267 2.0 9.0 0.00 0.04 0.04 60
20260505163132 58 303 1.0 5.0 0.00 0.04 0.04 55
20260505162629 59 258 2.0 7.0 0.00 0.04 0.04 52
20260505162127 59 291 3.0 7.0 0.00 0.04 0.04 51
20260505161624 59 308 4.0 8.0 0.00 0.04 0.04 50
20260505161121 60 273 2.0 7.0 0.00 0.04 0.04 51
20260505160618 60 12 3.0 5.0 0.00 0.04 0.04 51
20260505160116 61 311 4.0 7.0 0.00 0.04 0.04 50
20260505153055 60 297 1.0 2.0 0.00 0.04 0.04 53
20260505152552 61 290 3.0 3.0 0.00 0.04 0.04 51
20260505152047 60 254 2.0 6.0 0.00 0.04 0.04 51
20260505151542 60 265 1.0 2.0 0.00 0.04 0.04 53
20260505151040 61 263 1.0 5.0 0.00 0.04 0.04 50
20260505150536 61 254 1.0 2.0 0.00 0.04 0.04 53
20260505140501 63 280 2.0 6.0 0.00 0.04 0.04 64
20260505124915 61 252 3.0 7.0 0.00 0.04 0.04 76
20260505124412 61 273 2.0 3.0 0.00 0.04 0.04 78
20260505123908 61 297 1.0 5.0 0.00 0.04 0.04 78
20260505123405 61 238 1.0 5.0 0.00 0.04 0.04 79
20260505122900 61 270 1.0 6.0 0.00 0.04 0.04 79
20260505122358 60 257 3.0 6.0 0.00 0.04 0.04 81
20260505121854 59 227 1.0 3.0 0.00 0.04 0.04 82
20260505121351 60 248 0.0 3.0 0.00 0.04 0.04 82
20260505120847 60 268 1.0 2.0 0.00 0.04 0.04 82
20260505120344 59 245 2.0 6.0 0.00 0.04 0.04 82
20260505115842 59 220 1.0 7.0 0.00 0.04 0.04 83
20260505115340 59 288 1.0 8.0 0.00 0.04 0.04 83
20260505114838 59 283 2.0 7.0 0.00 0.04 0.04 83
20260505114334 58 347 2.0 6.0 0.00 0.04 0.04 84
20260505113830 58 296 2.0 3.0 0.00 0.04 0.04 84
20260505113327 58 345 1.0 3.0 0.00 0.04 0.04 84
20260505112823 58 232 2.0 2.0 0.00 0.04 0.04 84
20260505112320 58 240 0.0 3.0 0.00 0.04 0.04 84
20260505111816 58 244 0.0 7.0 0.00 0.04 0.04 84
20260505111311 58 256 1.0 2.0 0.00 0.04 0.04 84
20260505110808 58 228 0.0 2.0 0.00 0.04 0.04 84
20260505110305 58 278 0.0 2.0 0.00 0.04 0.04 83
20260505101739 59 211 3.0 8.0 0.00 0.04 0.04 81
20260505101235 59 336 4.0 5.0 0.00 0.04 0.04 81
20260505100732 59 273 3.0 8.0 0.00 0.04 0.04 80
20260505100229 59 250 2.0 7.0 0.00 0.04 0.04 81
20260505095724 59 242 2.0 6.0 0.00 0.04 0.04 80
20260505095222 59 267 4.0 8.0 0.00 0.04 0.04 80
20260505094718 59 282 4.0 6.0 0.00 0.04 0.04 80
20260505094214 59 235 2.0 5.0 0.00 0.04 0.04 80
20260505093711 59 248 5.0 7.0 0.00 0.04 0.04 81
20260505093208 59 241 3.0 6.0 0.00 0.04 0.04 81
20260505092705 59 200 3.0 7.0 0.00 0.04 0.04 82
20260505092204 59 225 3.0 10.0 0.00 0.04 0.04 82
20260505091700 59 284 3.0 3.0 0.00 0.04 0.04 83
20260505091158 59 303 1.0 2.0 0.00 0.04 0.04 83
20260505090655 59 153 5.0 10.0 0.00 0.04 0.04 83
20260505090154 59 218 1.0 3.0 0.00 0.04 0.04 83
20260505085651 59 241 1.0 6.0 0.00 0.04 0.04 83
20260505085149 59 250 1.0 9.0 0.00 0.04 0.04 83
20260505084646 59 245 1.0 6.0 0.00 0.04 0.04 83
20260505084145 59 244 1.0 5.0 0.00 0.04 0.04 82
20260505083642 59 252 1.0 2.0 0.00 0.04 0.04 83
20260505083138 59 251 2.0 8.0 0.00 0.04 0.04 82
20260505082634 59 220 2.0 7.0 0.00 0.04 0.04 82
20260505082131 59 256 0.0 6.0 0.00 0.04 0.04 82
20260505081627 59 252 2.0 5.0 0.00 0.04 0.04 82
20260505081125 59 230 2.0 9.0 0.00 0.04 0.04 83
20260505080621 59 249 2.0 6.0 0.00 0.04 0.04 83
20260505080118 59 226 1.0 5.0 0.00 0.04 0.04 83
20260505075614 59 220 0.0 2.0 0.00 0.04 0.04 83
20260505075111 59 212 0.0 5.0 0.00 0.04 0.04 83
20260505074607 59 246 0.0 5.0 0.00 0.04 0.04 82
20260505074105 59 291 4.0 6.0 0.00 0.04 0.04 82
20260505073602 59 282 3.0 3.0 0.00 0.04 0.04 82
20260505073101 59 287 1.0 3.0 0.00 0.04 0.04 83
20260505072555 59 234 0.0 1.0 0.00 0.04 0.04 83
20260505072052 59 281 2.0 2.0 0.00 0.04 0.04 84
20260505071548 59 254 1.0 2.0 0.00 0.04 0.04 83
20260505071046 59 227 1.0 2.0 0.00 0.04 0.04 83
20260505070543 60 257 1.0 6.0 0.00 0.04 0.04 83
20260505070039 59 190 2.0 6.0 0.00 0.04 0.04 83
20260505065535 59 247 0.0 1.0 0.00 0.04 0.04 84
20260505065032 59 213 3.0 3.0 0.00 0.04 0.04 85
20260505064529 59 328 2.0 3.0 0.00 0.04 0.04 85
20260505064027 59 266 1.0 6.0 0.00 0.04 0.04 86
20260505063524 59 185 1.0 2.0 0.00 0.04 0.04 87
20260505063020 59 254 1.0 2.0 0.00 0.04 0.04 86
20260505062517 59 317 1.0 3.0 0.00 0.04 0.04 86
20260505062014 59 241 1.0 3.0 0.00 0.04 0.04 86
20260505061512 59 57 1.0 5.0 0.00 0.04 0.04 86
20260505061009 59 328 1.0 3.0 0.00 0.04 0.04 87
20260505060507 59 172 2.0 3.0 0.00 0.04 0.04 88
20260505060003 59 293 1.0 2.0 0.00 0.04 0.04 88
20260505055458 58 235 1.0 7.0 0.00 0.04 0.04 90
20260505054955 58 230 1.0 5.0 0.00 0.04 0.04 90
20260505054453 58 265 0.0 1.0 0.00 0.04 0.04 91
20260505053950 58 252 0.0 1.0 0.00 0.04 0.04 90
20260505053447 58 272 3.0 5.0 0.05 0.04 0.04 90
20260505052944 58 133 1.0 5.0 0.05 0.04 0.04 91
20260505052441 58 224 0.0 2.0 0.00 0.03 0.03 91
20260505051938 58 224 2.0 3.0 0.00 0.03 0.03 91
20260505051435 58 203 1.0 1.0 0.00 0.03 0.03 91
20260505050933 59 250 0.0 1.0 0.00 0.03 0.03 90
20260505050431 59 241 0.0 2.0 0.00 0.03 0.03 89
20260505041359 67 302 1.0 2.0 0.00 0.00 0.00 64
20260505040856 66 341 2.0 3.0 0.00 0.00 0.00 65
20260505040354 66 261 0.0 3.0 0.00 0.00 0.00 65
20260505035850 66 264 0.0 2.0 0.00 0.09 0.09 65
20260505035346 66 226 1.0 3.0 0.00 0.09 0.09 66
20260505034843 66 196 1.0 3.0 0.00 0.09 0.09 65
20260505034340 66 200 1.0 5.0 0.00 0.09 0.09 65
20260505033837 66 304 1.0 2.0 0.00 0.09 0.09 66
20260505033334 66 58 1.0 2.0 0.00 0.09 0.09 66
20260505032832 66 259 2.0 2.0 0.00 0.09 0.09 66
20260505032328 66 260 1.0 3.0 0.00 0.09 0.09 66
20260505031826 66 180 2.0 3.0 0.00 0.09 0.09 67
20260505031322 66 258 0.0 2.0 0.00 0.09 0.09 67
20260505030819 66 220 1.0 2.0 0.00 0.09 0.09 68
20260505030315 66 99 0.0 3.0 0.00 0.09 0.09 68
20260505025811 65 333 1.0 5.0 0.00 0.09 0.09 70
20260505025309 64 61 0.0 2.0 0.00 0.09 0.09 73
20260505024807 63 227 1.0 1.0 0.00 0.09 0.09 75
20260505024304 63 258 0.0 0.0 0.00 0.09 0.09 76
20260505023801 62 201 1.0 1.0 0.00 0.09 0.09 77
20260505023258 62 271 0.0 1.0 0.00 0.09 0.09 79
20260505022755 62 244 0.0 1.0 0.00 0.09 0.09 78
20260505022252 62 229 0.0 1.0 0.00 0.09 0.09 78
20260505021749 62 248 0.0 1.0 0.00 0.09 0.09 78
20260505021246 63 244 0.0 1.0 0.00 0.09 0.09 77
20260505020742 63 240 0.0 1.0 0.00 0.09 0.09 76
20260505020237 63 246 0.0 1.0 0.00 0.09 0.09 75
20260505015735 64 175 2.0 2.0 0.00 0.09 0.09 75
20260505015231 64 134 0.0 2.0 0.00 0.09 0.09 74
20260505014728 63 233 2.0 8.0 0.00 0.09 0.09 74
20260505014226 63 314 1.0 2.0 0.00 0.09 0.09 76